Location: Richmond
(37.5536°N, 77.4606°W)
Time: 15:14:22
(UTC-05:00)

ISS - Visible Passes

Search period start: 20 December 2014 00:00
Search period end: 30 December 2014 00:00
Orbit: 404 x 414 km, 51.6° (Epoch: 20 December)

Date Brightness Start Highest point End Pass type
(mag) Time Alt. Az. Time Alt. Az. Time Alt. Az.
21 Dec -0.9 17:57:26 10° N 17:57:46 10° NNE 17:57:59 10° NNE visible
22 Dec -0.9 18:41:25 10° NNW 18:42:15 15° NNW 18:42:15 15° NNW visible
23 Dec -1.5 17:50:57 10° NNW 17:53:05 16° NNE 17:53:51 15° NE visible
24 Dec -2.7 18:35:51 10° NW 18:38:23 42° N 18:38:23 42° N visible
25 Dec -2.4 17:45:06 10° NNW 17:48:03 30° NNE 17:50:22 14° E visible
25 Dec -0.5 19:21:46 10° WNW 19:23:11 19° W 19:23:11 19° W visible
26 Dec -2.6 18:30:26 10° WNW 18:33:38 52° SW 18:35:33 21° SSE visible
27 Dec -3.4 17:39:20 10° NW 17:42:37 76° NE 17:45:53 10° SE visible
28 Dec -0.4 18:25:29 10° W 18:27:49 18° SW 18:30:10 10° S visible
29 Dec -1.5 17:33:47 10° WNW 17:36:50 36° SW 17:39:51 10° SSE visible
